Location: Newark
(48.1500°N, 2.9667°W)
Time: 04:53:32
(UTC+00:00)

Transit 2A - Pass Details

Date: 02 February 2020
Orbit: 600 x 959 km, 66.7° (Epoch: 16 February)

Event Time Altitude Azimuth Distance (km) Brightness Sun altitude
Rises 23:40:39 0° 328° (NNW) 2,917 - -57.3°
Reaches altitude 10° 23:45:17 10° 12° (NNE) 2,080 - -57.5°
Maximum altitude 23:45:57 10° 21° (NNE) 2,075 - -57.6°
Drops below altitude 10° 23:46:38 10° 29° (NNE) 2,105 - -57.6°
Sets 23:51:33 0° 72° (ENE) 3,128 - -57.8°
